DELTA 1 DEB, 42566

Orbit data source: Space-Track

DELTA 1 DEB, 42566 is space debris in SSO originally from a launch on Sun, 23 Jul 1972 UTC launched from the Air Force Western Test Range (AFWTR). Debris objects in space refer to the collection of defunct objects orbiting the Earth. Examples of debris include non-operational satellites, rocket bodies, and fragments generated from explosions, collisions, or faulty payload assembly.

Loading next visibility...
Identifier
42566, 1972-058JZ
Orbit
SSO
Country
Flag of USUS
Related business
Manufacturer
Unknown
Mission
Spacecraft
Bus & Motor
Unknown
Mass
Unknown
Launch date (UTC)
1972-07-23 (54 years ago)
Launch vehicle
Unknown
Launch site
Air Force Western Test Range (AFWTR)
Object type
Payload
Rocket body
Debris
Shape & HBR
Unknown shape, 0.1 m
Radar Cross Section
Small (<0.1 m²)

Expand to show TLE details & history
Last TLE update: 1 day ago

TLE from 1 day ago
0 DELTA 1 DEB
1 42566U 72058JZ  26106.29945138  .00000919  00000-0  54355-3 0  9995
2 42566  98.1319 238.5642 0476661 231.5825 124.1617 13.64903799615096
Epoch: 2026-04-16T07:11Z
TLE epoch observation values (Epoch: 2026-04-16T07:11:12.599Z)
Latitude
-0.00005°
Longitude
-73.68727°
Altitude
1,229.832 km
Speed
7.137 km/s
True Right ascension
15h 54m 15s
True Declination
0° 00' 00"
Sunlit
Object was in full shadow at epoch
Visualization orbit readout
Latitude
Unknown
Longitude
Unknown
Altitude
Unknown
Speed
Unknown
Apparent Right ascension
Unknown
Apparent Declination
Unknown
Sunlit
N/A
Visualization observer readout
Local Sidereal Time
18:42:45
Azimuth
Unknown
Elevation
Unknown
Doppler factor
Unknown
Orbital elements
Apogee altitude
1,367.529 km
Perigee altitude
662.713 km
Semi-major axis
7,393.258 km
Eccentricity
0.04767
Inclination
98.1319°
RAAN
238.5642°
Arg. of periapsis
231.5825°
True anomaly
128.53065°
Mean anomaly
124.1617°
Eccentric anomaly
126.36102°
Mean motion
3.4142 °/min
Orbital period
105.44 mins
BSTAR
0.00054355
Loading maneuver chart data...
Computing Atmospheric mass density...
Loading historical data...
Loading historical data...
Loading historical data...
Loading historical data...
Loading historical data...
Loading historical data...
Loading historical data...

Documentation

Showing up to 5 results
|